[[{"header":{"parameterUnit":"m.s-1","parameterCategory":1,"la1":30.2991,"la2":30.254,"lo1":-89.0895,"lo2":-89.0444,"dy":0.0017,"dx":0.0017,"nx":28,"ny":28,"refTime":"2024-04-02T09:00:00:Z","depth":0,"parameterNumber":2,"parameterNumberName":"U-component_of_WINDS"},"data":[0,0,0,0,0,0,0,0,0,0,0,0,0,0,0,0,0,0,0,0,0,0,0,0,0,0,0,0,0,0,0,0,0,0,0,0,0,0,0,0,0,0,0,0,0,0,0,0,0,0,0,0,0,0,0,0,0,0,0.8432,0.8431,0,0.8362,0.8361,0.836,0.8304,0.8303,0.8302,0.8302,0.8231,0.8229,0.8228,0,0,0,0,0,0,0,0,0,0,0,0,0,0.8518,0.8516,0.8432,0.8431,0.843,0.8362,0.8361,0.836,0.8304,0.8303,0.8302,0.8302,0.8231,0.823,0.8228,0,0,0,0,0,0,0,0,0,0,0,0,0,0.8467,0.8516,0.8432,0.8394,0.839,0.8362,0.8361,0.836,0.8304,0.8303,0.8302,0.8301,0.8232,0.823,0.8228,0.8233,0,0,0.8222,0.8221,0,0,0,0,0,0,0,0,0.847,0.8464,0.84,0.8396,0.8392,0.834,0.8365,0.8317,0.8304,0.8336,0.8302,0.8301,0.8268,0.8263,0.8252,0.8229,0.8226,0.8221,0.822,0.8219,0.8219,0,0,0,0,0,0,0,0.8474,0.8467,0.8404,0.8399,0.8394,0.838,0.8372,0.8356,0.8308,0.8334,0.8329,0.8322,0.8265,0.8254,0.825,0.8225,0.8221,0.822,0.8218,0.8218,0.8204,0.8205,0,0,0,0,0,0,0.8483,0.847,0.8406,0.8402,0.843,0.838,0.837,0.8358,0.8308,0.83,0.8323,0.8319,0.8258,0.8252,0.8247,0.825,0.8219,0.8217,0.8216,0.8203,0.8204,0.8205,0,0,0,0,0,0,0.8485,0.8478,0.8409,0.8435,0.8425,0.8379,0.8365,0.8357,0.8345,0.83,0.8291,0.8319,0.8257,0.825,0.8237,0.8247,0.8216,0.8215,0.8202,0.8204,0.8205,0.8257,0,0,0,0,0,0,0.8488,0.8479,0.848,0.8435,0.8424,0.84,0.8366,0.8356,0.8342,0.8337,0.8294,0.8287,0.8256,0.824,0.8235,0.8244,0.8213,0.8201,0.8203,0.8204,0.8254,0.8259,0.8264,0,0,0,0,0,0.8491,0.8498,0.8481,0.8473,0.8425,0.8401,0.8394,0.8359,0.8343,0.8344,0.8315,0.8288,0.8246,0.8239,0.8233,0.8241,0.82,0.8202,0.8204,0.8251,0.8258,0.8264,0,0,0,0,0,0,0.8545,0.8491,0.8472,0.8464,0.8437,0.8391,0.8392,0.8367,0.8345,0.8341,0.8298,0.8288,0.828,0.8259,0.8252,0.8244,0.822,0.8221,0.8258,0.8264,0.8269,0.8275,0.8211,0,0,0,0,0,0.8556,0.8541,0.8495,0.8492,0.848,0.8438,0.8427,0.8401,0.8372,0.8361,0.8331,0.8304,0.8285,0.8273,0.8253,0.825,0.824,0.8253,0.8258,0.8262,0.8264,0.8261,0.8267,0.8212,0.8212,0.8212,0,0,0.8579,0.8547,0.854,0.8502,0.8479,0.8465,0.8429,0.8416,0.8405,0.8359,0.8345,0.8322,0.8289,0.8281,0.8276,0.8263,0.8277,0.8265,0.8269,0.8268,0.8264,0.8269,0.8274,0.8213,0.8213,0.8213,0,0,0.8613,0.8587,0.8583,0.856,0.8525,0.8497,0.8496,0.8454,0.8437,0.8422,0.8387,0.8374,0.8342,0.832,0.8305,0.8331,0.8306,0.8325,0.8353,0.8352,0.8356,0.836,0.837,0.8374,0.8327,0.8327,0.8327,0,0.8645,0.8622,0.8583,0.8572,0.8557,0.8514,0.8509,0.8489,0.845,0.844,0.8426,0.8385,0.836,0.8347,0.8353,0.8342,0.834,0.8331,0.8358,0.8362,0.8365,0.8374,0.8378,0.833,0.8329,0.8329,0.8329,0,0.8665,0.8649,0.865,0.8613,0.8597,0.859,0.855,0.8539,0.8515,0.8489,0.8475,0.8443,0.8416,0.8411,0.8387,0.8394,0.8388,0.8367,0.8342,0.8373,0.8381,0.8384,0.8334,0.8333,0.8332,0.8331,0,0,0.8731,0.8673,0.8674,0.8657,0.8615,0.8602,0.8593,0.8566,0.8558,0.8532,0.8524,0.8497,0.8478,0.8461,0.8434,0.8432,0.8456,0.8411,0.841,0.8422,0.8463,0.848,0.8485,0.8439,0.8439,0.844,0.8467,0,0.8759,0.8739,0.8704,0.8696,0.8682,0.8641,0.8633,0.8607,0.8582,0.8567,0.8539,0.8522,0.8497,0.8486,0.8483,0.8454,0.8464,0.8452,0.8431,0.8431,0.8442,0.8489,0.8507,0.8533,0.8469,0.847,0.847,0,0.8789,0.8766,0.8757,0.8717,0.8709,0.8702,0.8676,0.8661,0.8631,0.8613,0.8594,0.8565,0.8553,0.853,0.8514,0.8506,0.8495,0.848,0.848,0.8477,0.8453,0.8489,0.8541,0.8546,0.8474,0.8474,0.8474,0,0.884,0.8806,0.8796,0.8783,0.8735,0.8732,0.8712,0.868,0.8667,0.8644,0.8635,0.861,0.8597,0.8579,0.8544,0.853,0.8532,0.8506,0.8517,0.8518,0.852,0.852,0.8572,0.8512,0.8512,0.8511,0.8511,0,0.8875,0.8872,0.8818,0.8813,0.8807,0.8767,0.8762,0.8739,0.8711,0.87,0.8663,0.8654,0.8608,0.8593,0.8566,0.8557,0.8551,0.8537,0.853,0.8541,0.8543,0.8534,0.8531,0.8512,0.8512,0.8512,0.8512,0,0.8931,0.8895,0.8882,0.8839,0.8828,0.8826,0.8788,0.8781,0.8754,0.8741,0.8736,0.8694,0.8674,0.8638,0.8608,0.859,0.8587,0.8574,0.8598,0.8593,0.8607,0.8607,0.8656,0.8661,0.8597,0.8597,0.8598,0,0.8957,0.8953,0.8909,0.8899,0.8881,0.8865,0.8851,0.8811,0.8798,0.8764,0.8761,0.8739,0.8719,0.869,0.8657,0.8635,0.8622,0.864,0.8618,0.8629,0.8623,0.8624,0.8624,0.8646,0.8647,0.8647,0.8648,0,0.9006,0.8989,0.897,0.8946,0.893,0.8909,0.8886,0.888,0.8835,0.8822,0.8802,0.8787,0.8757,0.8736,0.8708,0.8688,0.8661,0.8655,0.8657,0.8668,0.8683,0.8676,0.8612,0.8655,0.8654,0.8653,0.8653,0.8653,0.9048,0.9043,0.9012,0.8992,0.8971,0.895,0.8942,0.8914,0.8896,0.8869,0.8846,0.8829,0.8798,0.8759,0.874,0.8726,0.8713,0.8715,0.8716,0.8717,0.8722,0.8684,0.872,0.872,0.872,0.872,0.872,0,0.9096,0.9074,0.9057,0.9026,0.9011,0.8986,0.8959,0.8949,0.8934,0.8908,0.8889,0.8867,0.8846,0.8811,0.8788,0.8783,0.877,0.8778,0.8779,0.8775,0.8734,0.8736,0.8789,0.8789,0.8789,0.8789,0.8789,0.8789,0.912,0.911,0.9089,0.9069,0.9046,0.9029,0.9016,0.8997,0.8976,0.8953,0.8935,0.8913,0.8884,0.8858,0.8838,0.8828,0.8822,0.8834,0.8821,0.8784,0.8778,0.8771,0.8772,0.8833,0.8833,0.8862,0.8863,0.8863]},{"header":{"parameterUnit":"m.s-1","parameterCategory":1,"la1":30.2991,"la2":30.254,"lo1":-89.0895,"lo2":-89.0444,"dy":0.0017,"dx":0.0017,"nx":28,"ny":28,"refTime":"2024-04-02T09:00:00:Z","depth":0,"parameterNumber":3,"parameterNumberName":"V-component_of_WINDS"},"data":[0,0,0,0,0,0,0,0,0,0,0,0,0,0,0,0,0,0,0,0,0,0,0,0,0,0,0,0,0,0,0,0,0,0,0,0,0,0,0,0,0,0,0,0,0,0,0,0,0,0,0,0,0,0,0,0,0,0,5.2367,5.2369,0,5.2597,5.26,5.2603,5.2633,5.2631,5.2628,5.2626,5.2861,5.2869,5.2877,0,0,0,0,0,0,0,0,0,0,0,0,0,5.1952,5.1959,5.2367,5.237,5.2373,5.2597,5.26,5.2603,5.2633,5.2631,5.2628,5.2625,5.2858,5.2868,5.2878,0,0,0,0,0,0,0,0,0,0,0,0,0,5.2152,5.1962,5.2366,5.2415,5.2421,5.2596,5.26,5.2604,5.2634,5.263,5.2627,5.2624,5.2855,5.2867,5.2879,5.3022,0,0,5.2917,5.2923,0,0,0,0,0,0,0,0,5.2141,5.2167,5.2405,5.2412,5.2419,5.2583,5.254,5.2744,5.2635,5.2553,5.2626,5.2622,5.2771,5.279,5.2841,5.3033,5.3043,5.2919,5.2926,5.2931,5.2935,0,0,0,0,0,0,0,5.2127,5.2158,5.2458,5.2408,5.2417,5.2425,5.2449,5.2579,5.2678,5.256,5.2563,5.259,5.2774,5.2829,5.2846,5.3047,5.2918,5.2929,5.2937,5.2942,5.3371,5.3374,0,0,0,0,0,0,5.2104,5.2146,5.2451,5.2465,5.2269,5.2435,5.2462,5.2534,5.2676,5.2695,5.2592,5.259,5.2809,5.2832,5.2855,5.3034,5.2931,5.2943,5.295,5.3367,5.3371,5.3376,0,0,0,0,0,0,5.2095,5.2131,5.2441,5.2306,5.2346,5.2445,5.2525,5.254,5.2594,5.2701,5.2718,5.2629,5.2807,5.2837,5.2981,5.3043,5.2949,5.296,5.3362,5.3368,5.3374,5.3392,0,0,0,0,0,0,5.2083,5.2128,5.2183,5.2307,5.2353,5.2564,5.2529,5.2547,5.2616,5.2615,5.274,5.2758,5.2807,5.2962,5.2993,5.3058,5.297,5.3357,5.3365,5.3372,5.3386,5.3398,5.3407,0,0,0,0,0,5.2068,5.2178,5.2186,5.2222,5.2425,5.2567,5.2594,5.2649,5.262,5.2677,5.2746,5.2754,5.303,5.2977,5.3012,5.3081,5.3354,5.3363,5.3371,5.3381,5.3395,5.3407,0,0,0,0,0,0,5.2057,5.2195,5.2205,5.2358,5.2451,5.2572,5.2646,5.2661,5.2763,5.2758,5.2821,5.2849,5.2991,5.305,5.2988,5.3228,5.3189,5.3205,5.3185,5.3199,5.3209,5.3193,5.298,0,0,0,0,0,5.2073,5.2178,5.2292,5.2416,5.2462,5.2546,5.261,5.2644,5.2742,5.2782,5.2861,5.2956,5.3064,5.3134,5.324,5.3394,5.3423,5.3459,5.3469,5.3477,5.3492,5.3581,5.3599,5.3405,5.3405,5.3404,0,0,5.2106,5.2194,5.2256,5.2416,5.2492,5.26,5.2579,5.2692,5.2773,5.2799,5.2941,5.3002,5.3112,5.3262,5.3332,5.3316,5.3551,5.3489,5.3494,5.3505,5.3591,5.361,5.3626,5.3411,5.341,5.3409,0,0,5.2222,5.2298,5.2412,5.2489,5.2604,5.2659,5.2686,5.2806,5.2848,5.2991,5.3013,5.3109,5.3294,5.3373,5.3437,5.3583,5.3596,5.3616,5.3672,5.3758,5.3773,5.3787,5.3843,5.3861,5.3629,5.3629,5.3629,0,5.2249,5.2412,5.2468,5.2583,5.2653,5.2681,5.2798,5.2869,5.3012,5.3061,5.304,5.3274,5.335,5.3521,5.3557,5.3606,5.3641,5.3603,5.3766,5.3781,5.3795,5.3848,5.3869,5.3631,5.3631,5.363,5.363,0,5.2441,5.2554,5.2631,5.2771,5.285,5.2964,5.3038,5.3111,5.3138,5.3195,5.3341,5.3433,5.3559,5.3601,5.3628,5.3777,5.3763,5.3753,5.3716,5.3814,5.3866,5.3887,5.3634,5.3633,5.3632,5.3632,0,0,5.2558,5.2728,5.2756,5.2821,5.2951,5.3039,5.3155,5.3279,5.3342,5.3439,5.354,5.3695,5.3688,5.3761,5.3796,5.3871,5.3986,5.3853,5.3856,5.3877,5.4158,5.4168,5.419,5.3993,5.3997,5.4,5.415,0,5.2692,5.2901,5.2955,5.3132,5.3239,5.3267,5.3369,5.3459,5.3516,5.3614,5.3676,5.3787,5.3767,5.3812,5.3887,5.3956,5.4043,5.3945,5.4089,5.4093,5.4064,5.4217,5.4227,5.4364,5.417,5.4174,5.4176,0,5.2876,5.298,5.3169,5.3288,5.3334,5.3424,5.3544,5.3636,5.374,5.3776,5.3858,5.3887,5.4009,5.3963,5.4134,5.4066,5.4128,5.4171,5.4177,5.4196,5.4143,5.4242,5.4408,5.443,5.4208,5.4205,5.4203,0,5.2947,5.3133,5.3272,5.3326,5.3466,5.353,5.3591,5.3691,5.3763,5.3866,5.3914,5.403,5.4094,5.4183,5.4243,5.4203,5.441,5.4368,5.4445,5.4444,5.449,5.4487,5.4671,5.4523,5.4523,5.4523,5.4522,0,5.3093,5.3208,5.3306,5.3391,5.3522,5.3582,5.3709,5.3771,5.386,5.3959,5.3988,5.408,5.4152,5.4253,5.43,5.4437,5.4464,5.4498,5.451,5.4497,5.4494,5.4541,5.4534,5.4528,5.4527,5.4526,5.4525,0,5.3196,5.3265,5.3418,5.3539,5.3572,5.3663,5.3767,5.3851,5.3908,5.4032,5.4064,5.4154,5.4275,5.4343,5.4494,5.4526,5.4679,5.4684,5.4645,5.4651,5.4725,5.4718,5.495,5.4984,5.4809,5.4811,5.4812,0,5.3286,5.3376,5.3507,5.3575,5.3638,5.3747,5.3821,5.3883,5.3959,5.4085,5.4155,5.4277,5.438,5.4572,5.4651,5.4767,5.4778,5.485,5.4795,5.4781,5.4783,5.4779,5.4789,5.4861,5.4862,5.4864,5.4865,0,5.344,5.347,5.3576,5.3695,5.3783,5.3879,5.3974,5.4028,5.4106,5.4189,5.4314,5.4394,5.4549,5.4672,5.4795,5.4858,5.4876,5.4881,5.4906,5.4896,5.4871,5.4889,5.4675,5.4876,5.4875,5.4874,5.4874,5.4873,5.3542,5.3624,5.373,5.3848,5.3926,5.4015,5.4101,5.4169,5.4274,5.4407,5.4436,5.4569,5.4671,5.4839,5.4905,5.501,5.4997,5.5031,5.5041,5.5049,5.5054,5.4851,5.5032,5.5032,5.5031,5.5031,5.5031,0,5.3701,5.377,5.3878,5.4011,5.4104,5.4111,5.4217,5.4295,5.4411,5.4505,5.4606,5.475,5.4869,5.4958,5.508,5.5147,5.5158,5.5177,5.5175,5.519,5.5057,5.5026,5.5166,5.5166,5.5166,5.5166,5.5166,5.5166,5.3795,5.3936,5.3978,5.4159,5.4227,5.4358,5.4419,5.4501,5.4577,5.4738,5.4837,5.4894,5.4987,5.5116,5.5226,5.5249,5.5294,5.5313,5.5337,5.5213,5.5198,5.5185,5.5156,5.5321,5.5321,5.5461,5.5463,5.5463]}]]